Theta_e
339 340 341 342 343 342 339 342 340 339 339 338 336 336 332 331 330 330 331 330 329 329 329 329 329 328 322
337 333 335 337 338 338 338 335 335 334 334 334 332 335 336 335 334 334 333 331 330 330 330 327 326 326 322
336 335 330 331 332 332 331 329 329 332 331 329 329 330 336 336 336 336 335 333 331 328 328 326 325 319 319
338 336 334 336 333 331 331 329 328 330 330 329 324 326 330 331 334 336 335 332 327 320 318 320 318 318 318
334 334 333 336 334 333 331 329 327 327 326 325 324 324 323 322 325 329 328 327 323 320 319 316 314 316 316
332 331 332 333 334 334 334 333 330 327 323 323 322 322 322 322 321 322 322 323 323 322 320 318 315 315 316
331 331 330 329 330 332 332 332 333 330 327 324 323 322 322 322 321 320 320 321 321 321 321 319 317 315 315
330 330 331 331 331 330 329 330 331 331 330 328 326 323 321 322 322 321 321 320 320 320 319 319 318 317 317
324 330 330 330 331 330 330 331 330 330 329 330 328 326 325 325 323 321 320 320 319 319 318 319 319 318 317
309 313 327 330 329 329 329 330 331 330 331 331 329 328 328 327 326 324 322 321 321 320 319 319 319 319 319
309 309 312 320 326 329 328 328 329 330 332 331 330 330 329 328 326 325 324 323 322 321 321 321 321 321 321
311 308 309 312 316 320 324 327 328 330 332 331 331 331 330 328 328 326 325 324 323 323 322 322 321 321 322
308 308 307 310 314 318 320 324 327 327 329 328 324 326 329 328 328 328 326 324 322 323 321 321 322 322 320
305 308 310 307 313 318 321 318 323 325 325 326 325 326 326 326 325 325 324 322 322 323 319 317 313 315 316
301 309 313 311 314 312 312 314 310 309 312 312 312 316 319 324 323 323 323 322 320 321 322 317 311 309 311
299 303 307 307 305 304 306 307 302 300 301 303 305 306 308 311 311 312 314 321 322 319 319 320 320 317 311
Wind_Speed
8 7 7 7 7 6 5 6 7 8 8 9 8 9 9 8 6 5 5 3 2 1 1 2 5 6 2
6 9 9 8 6 6 6 6 7 8 8 8 8 9 10 9 8 7 6 6 5 5 4 5 6 7 4
6 6 7 7 7 7 6 6 5 4 5 6 6 8 10 10 9 9 8 7 6 6 7 7 7 3 5
5 6 6 6 4 4 5 5 4 4 4 5 6 9 10 9 10 9 9 9 6 3 3 5 3 5 4
5 4 3 3 3 3 6 5 5 4 4 3 3 3 4 6 3 5 4 3 4 4 4 4 5 4 3
4 4 4 4 4 4 5 7 5 4 4 4 3 4 4 3 5 4 3 4 5 5 5 5 5 4 3
6 4 4 5 4 5 5 6 5 4 4 4 4 3 4 3 4 4 4 4 5 5 5 6 6 6 6
6 6 5 4 5 4 4 5 7 5 5 4 4 4 4 4 4 4 5 5 5 4 6 6 7 6 6
5 6 5 5 4 4 5 6 6 5 5 6 4 4 5 4 5 4 4 3 4 4 6 5 5 6 6
2 4 4 4 4 4 4 4 7 6 7 5 4 4 5 4 5 4 4 4 4 4 4 5 5 6 8
4 3 4 5 4 4 4 4 6 6 5 4 4 4 4 3 4 4 4 5 5 5 6 6 6 6 8
3 3 2 2 3 3 4 4 6 5 6 3 3 4 4 3 3 3 5 3 5 5 5 7 5 6 7
3 2 2 2 2 2 3 4 4 3 3 3 1 3 3 3 4 3 2 3 3 4 2 4 7 7 8
2 2 2 0 3 3 4 8 7 7 6 4 6 4 4 3 4 3 3 2 3 3 3 1 3 3 4
5 2 1 3 3 4 4 5 9 9 9 9 8 6 6 4 3 3 3 4 3 3 5 3 2 4 2
6 4 5 3 3 3 3 5 7 9 11 8 8 7 7 5 6 5 6 4 3 4 2 4 5 3 3
Wind_Direction
182 185 193 195 196 193 191 192 193 184 187 184 184 181 185 198 200 175 162 188 235 222 320 317 317 315 19
191 198 196 197 202 208 211 210 203 195 200 201 203 209 206 205 208 194 195 207 228 245 260 279 293 309 303
196 200 204 206 208 219 224 222 213 214 216 220 221 221 227 220 217 211 206 213 230 249 261 272 284 287 291
199 194 197 198 200 211 215 215 213 214 222 220 229 232 234 232 229 225 216 219 226 237 272 290 266 264 275
199 188 188 183 188 208 212 215 215 212 220 229 243 247 231 241 242 242 245 231 229 232 254 259 264 268 261
191 191 200 183 188 195 208 206 197 206 223 230 227 235 220 214 224 230 229 236 239 240 243 257 249 254 254
203 204 206 213 194 204 201 203 194 202 207 210 219 216 220 211 217 230 230 231 234 239 241 239 247 243 245
215 221 217 207 210 211 220 216 205 197 199 197 212 216 216 211 219 221 218 222 234 227 245 240 246 249 246
240 237 226 223 215 215 218 223 225 217 212 187 204 213 217 214 223 227 237 232 240 235 243 246 242 245 246
334 266 249 234 221 224 223 217 218 217 212 207 198 214 213 208 214 210 217 231 228 229 239 244 237 236 240
326 304 263 255 240 235 225 216 223 219 215 199 206 216 210 214 208 212 217 217 233 232 237 247 248 250 250
335 308 297 269 256 250 240 221 220 225 220 205 253 232 215 221 228 216 235 215 238 243 233 245 238 241 251
9 352 3 326 324 24 339 276 260 246 136 174 197 275 266 242 230 226 216 240 239 229 264 247 252 244 242
1 279 225 249 50 59 36 38 30 56 38 33 24 344 324 297 282 261 234 246 238 197 217 267 279 296 257
347 322 86 85 51 23 12 43 39 44 53 51 37 27 16 360 328 311 279 235 257 258 215 210 251 228 338
6 30 59 88 108 48 37 56 52 36 43 40 42 29 27 19 19 3 2 321 231 255 279 230 258 282 264